Dewpoint
35 34 36 37 39 40 41 42 42 42 43 43 43 42 43 43 44 45 46 46 46 46 46 46 45 44 43 44 43 43 43 43
34 34 37 38 39 38 40 40 39 39 39 39 39 38 41 42 43 45 44 45 45 44 45 44 45 43 42 42 41 41 41 42
34 33 37 37 38 37 36 37 37 38 37 38 38 38 39 42 43 43 44 44 43 43 44 44 43 42 41 41 39 41 40 40
33 33 36 36 35 36 35 37 37 38 39 38 38 38 39 39 41 41 42 43 43 43 43 43 43 42 40 39 39 40 40 40
33 34 35 36 35 35 34 36 37 39 39 39 38 38 36 38 40 40 42 41 43 43 42 42 41 41 39 39 38 39 40 39
33 34 35 36 35 35 35 36 37 38 39 39 39 38 38 39 39 41 40 41 42 40 41 41 40 39 38 38 38 38 40 40
35 35 35 37 37 36 36 35 36 37 38 38 38 36 37 37 37 38 39 40 40 39 40 40 39 37 36 37 37 37 38 39
34 34 35 35 36 37 35 35 35 36 37 37 36 36 36 37 37 37 37 38 39 38 39 38 37 36 35 34 35 37 37 38
32 34 34 35 35 34 33 34 35 35 36 36 37 37 38 37 37 37 37 37 37 38 37 37 35 34 34 33 33 35 35 37
32 33 34 34 34 35 34 33 34 35 36 36 37 37 37 36 36 37 36 36 34 36 36 35 34 32 32 31 32 32 32 34
33 33 34 35 35 35 34 34 34 35 35 36 36 36 36 36 36 35 34 34 34 34 33 33 33 31 32 31 31 32 32 32
35 33 34 35 35 34 34 34 34 34 35 36 36 35 35 35 34 33 34 33 33 33 31 31 32 30 31 30 32 30 29 27
33 33 33 34 34 33 33 34 33 33 34 36 35 34 34 34 33 32 32 31 31 30 30 32 30 30 31 31 29 28 26 26
34 35 35 33 32 32 32 32 31 31 33 34 34 34 33 31 30 30 32 32 31 30 31 30 31 31 33 30 28 27 26 25
36 35 34 33 33 32 31 31 31 31 32 32 32 31 31 30 30 30 33 31 29 29 28 27 31 30 31 27 26 25 24 24
34 32 33 32 31 32 32 32 31 31 30 31 30 30 30 29 29 30 30 30 30 29 27 30 30 28 27 25 26 25 22 23
33 32 32 32 32 32 31 31 32 31 30 30 29 29 28 28 27 28 28 28 28 26 28 28 28 28 26 26 26 23 21 22
32 32 32 32 32 30 30 30 31 30 30 28 28 28 27 27 26 25 25 26 25 25 25 26 26 27 26 24 25 21 21 21
31 30 32 31 29 27 29 29 29 29 27 27 27 26 26 25 25 23 23 23 23 22 23 23 24 21 23 21 23 21 20 20
Lifted_Index
4 5 6 6 7 8 10 11 11 11 11 11 11 12 12 12 12 13 13 13 14 14 14 14 14 15 15 15 15 15 14 14
5 5 6 6 7 8 10 11 12 12 11 11 12 12 12 12 12 13 13 13 14 14 14 14 15 15 16 16 15 15 15 14
5 5 5 6 6 8 10 11 12 12 12 12 12 12 12 12 12 13 13 13 14 14 14 15 15 16 16 16 16 15 15 15
6 5 5 5 6 8 9 11 11 12 12 12 12 12 12 12 13 13 13 13 14 14 14 15 15 16 16 16 16 16 15 15
5 5 5 5 6 7 9 10 11 12 12 12 12 12 13 13 13 13 13 14 14 14 15 15 16 16 16 16 16 16 16 15
5 5 5 5 6 7 9 10 11 12 13 13 13 13 13 13 13 13 14 14 15 15 15 15 16 16 16 16 15 15 15 15
4 4 4 5 6 7 8 10 11 12 13 13 13 13 13 14 14 14 14 14 15 15 15 16 16 16 16 15 15 15 15 15
2 3 3 4 5 6 8 10 11 12 12 13 13 13 13 14 14 14 14 14 15 15 15 15 16 16 16 16 15 15 15 15
2 2 3 4 5 6 8 9 10 11 12 12 13 13 13 13 13 14 14 14 14 15 15 15 15 15 16 16 16 16 16 16
2 2 3 4 5 6 8 10 10 11 11 12 12 12 12 13 13 13 13 14 14 14 14 15 15 15 16 16 16 16 16 16
2 3 4 5 6 7 8 10 10 11 11 12 12 12 12 12 13 13 13 14 14 14 14 15 15 15 16 16 16 16 15 16
3 3 4 5 6 7 8 9 10 11 12 11 11 11 12 12 13 13 13 14 14 14 15 15 15 16 16 16 16 16 15 15
3 3 4 5 6 7 8 9 10 11 11 11 11 11 12 12 12 13 13 14 14 15 15 15 16 16 17 17 16 16 15 14
3 3 4 4 5 6 7 9 10 11 10 10 10 11 12 12 12 13 14 14 15 15 16 16 16 17 17 17 17 16 15 15
2 2 3 4 5 6 7 9 10 10 10 10 10 11 12 12 13 13 14 15 16 16 16 16 17 17 18 18 17 16 15 15
2 2 2 3 4 6 7 9 9 9 9 10 10 11 12 12 13 14 15 16 16 17 17 17 17 17 18 18 17 16 15 15
2 2 2 2 4 6 8 8 8 9 10 10 11 11 12 13 14 14 15 16 17 17 17 17 17 17 18 18 17 16 15 15
1 1 1 2 4 6 8 8 9 9 10 11 11 12 13 14 15 15 16 16 17 17 17 18 18 18 18 19 18 17 16 15
1 1 2 2 4 7 8 8 9 10 10 11 12 13 13 14 15 16 16 16 17 17 18 18 18 19 19 19 19 18 16 15